OBJECT B, 69181

Orbit data source: Space-Track

You're viewing an Uncataloged Satellite

Recently launched and/or uncataloged satellites may have evolving metadata. Metadata may include but not limited to: Owner, Maufacturer, Bus, Motor, and Mission.

OBJECT B, 69181 is a Chinese satellite in LEO that was launched on Sun, 24 May 2026 UTC launched from the Jiuquan Satellite Launch Center, China (JSC). Unknown objects in Earth's orbit typically refer to objects detected orbiting the Earth but have not yet been identified or cataloged. These objects could be anything from previously untracked satellites, spent rocket stages, debris from satellite collisions, or even natural meteoroids temporarily captured by Earth's gravity.

Not visible in the next 10 days
Identifier
69181, 2026-113B
Orbit
LEO
Country
Flag of CNCN / PRC
Related business
None
Manufacturer
Unknown
Mission
Spacecraft
Bus & Motor
Unknown
Mass
Unknown
Launch date (UTC)
2026-05-24 (2 days ago)
Launch vehicle
Unknown
Launch site
Jiuquan Satellite Launch Center, China (JSC)
Object type
Unknown
Shape & HBR
Unknown
Radar Cross Section
RCS unknown

Expand to show TLE details & history
Last TLE update: 1 day ago

TLE from 1 day ago
0 OBJECT B
1 69181U 26113B   26145.30297049  .00303609  75812-5  24663-3 0  9993
2 69181  41.4699 100.9723 0109938 129.5506 231.5123 16.01397151   113
Epoch: 2026-05-25T07:16Z
TLE epoch observation values (Epoch: 2026-05-25T07:16:16.650Z)
Latitude
0.00001°
Longitude
109.01024°
Altitude
316.111 km
Speed
7.694 km/s
True Right ascension
06h 43m 53s
True Declination
0° 00' 00"
Sunlit
Object was in daylight at epoch
Visualization orbit readout
Latitude
Unknown
Longitude
Unknown
Altitude
Unknown
Speed
Unknown
Apparent Right ascension
Unknown
Apparent Declination
Unknown
Sunlit
N/A
Visualization observer readout
Local Sidereal Time
03:33:43
Azimuth
Unknown
Elevation
Unknown
Doppler factor
Unknown
Orbital elements
Apogee altitude
345.94 km
Perigee altitude
199.701 km
Semi-major axis
6,650.957 km
Eccentricity
0.01099
Inclination
41.4699°
RAAN
100.9723°
Arg. of periapsis
129.5506°
True anomaly
230.53462°
Mean anomaly
231.5123°
Eccentric anomaly
231.02262°
Mean motion
4.00145 °/min
Orbital period
89.97 mins
BSTAR
0.00024663
Loading maneuver chart data...
Computing Atmospheric mass density...
Loading historical data...
Loading historical data...
Loading historical data...
Loading historical data...
Loading historical data...
Loading historical data...
Loading historical data...
Other satellites on launch #113 in the year 2026 (2026-05-24 UTC)

Documentation

Showing up to 5 results
|